Regional Weather Roundup
Issued by NWS

Home | Current Version | Previous Version | Graphics & Text | Print | Product List | Glossary On
Versions: 1 2 3 4 5 6 7 8 9 10 11 12 13 14 15 16 17 18 19 20 21 22 23 24 25 26 27
000
ASUS45 KBOU 230810
RWRCO

WEATHER ROUNDUP FOR COLORADO
NATIONAL WEATHER SERVICE DENVER/BOULDER CO
200 AM MDT WED MAY 23 2018

NOTE: "FAIR" INDICATES FEW OR NO CLOUDS BELOW 12000 FEET WITH NO
SIGNIFICANT WEATHER AND/OR OBSTRUCTIONS TO VISIBILITY.

COZ001>005-013-030-031-230900-
...NORTHWEST COLORADO...

CITY           SKY/WX    TMP DP  RH WIND       PRES   REMARKS
CRAIG          FAIR      45  41  86 CALM      30.04F
HAYDEN         FAIR      42  39  89 E9        30.07F
MEEKER         FAIR      40  37  89 E5        30.04F
RANGELY        FAIR      48  43  82 SE7       30.00S
RABBIT EARS PA FAIR      36  34  93 CALM      30.24S
STEAMBOAT SPGS FAIR      39  39 100 NW3       30.08F
WALDEN         FAIR      36  32  87 SE5       30.15F
$$

COZ006>008-011-230900-
...WEST CENTRAL VALLEYS...

CITY           SKY/WX    TMP DP  RH WIND       PRES   REMARKS
GRAND JUNCTION FAIR      50  43  77 SE10      29.95S
MONTROSE       FAIR      48  38  68 S12       30.02S
EAGLE          FAIR      42  38  85 SE3       30.11S
RIFLE          FAIR      44  39  82 E6        30.02S
DELTA          FAIR      48  43  82 SE3       30.00S
NUCLA          FAIR      46  34  61 E8        30.03S
$$

COZ017>023-064>068-230900-
...SOUTHWEST COLORADO...

CITY           SKY/WX    TMP DP  RH WIND       PRES   REMARKS
DURANGO        FAIR      44  29  55 CALM      30.05R
CORTEZ         FAIR      47  29  49 CALM      30.00R
PAGOSA SPRINGS FAIR      43  24  48 NE3       30.11S
TELLURIDE      CLOUDY    42  31  63 SE6       30.18S
WOLF CREEK PAS FAIR      36  28  75 SW6       30.37S
$$

COZ009-010-012-014-032>034-037-058>063-230900-
...CENTRAL COLORADO...

CITY           SKY/WX    TMP DP  RH WIND       PRES   REMARKS
ASPEN          FAIR      37  33  85 S8        30.11F
BUENA VISTA    FAIR      44  35  70 NW5       30.14S
COPPER MTN     FAIR      45  21  39 S12       30.31F
BERTHOUD PASS  FAIR      34  25  69 SW6       30.34F WCI  29
COTTONWOOD PAS FAIR      52  30  43 W9        30.22S
GUNNISON       FAIR      40  32  73 CALM      30.13S
GRANBY         FAIR      35  35  97 CALM      30.17F
KREMMLING      FAIR      43  41  93 CALM      30.15F
LEADVILLE      FAIR      34  30  85 CALM      30.21S
MONARCH PASS   FAIR      39  23  52 MISG      30.43S
SALIDA         FAIR      48  34  59 W8        30.19S
SUNLIGHT       FAIR      36  32  87 SE6       30.27S
WILKERSON PASS FAIR      41  30  65 S5        30.33S
$$

COZ069>075-230900-
...SAN LUIS VALLEY/SANGRE DE CRISTO MOUNTAINS...

CITY           SKY/WX    TMP DP  RH WIND       PRES   REMARKS
ALAMOSA        FAIR      42  38  85 SE8       30.10R
DEL NORTE      FAIR      44  30  58 W10       30.12S
LA VETA PASS   FAIR      45  34  65 S15G24    30.35F
SAGUACHE       NOT AVBL
$$

COZ035-036-038>040-230900-
...NORTHERN COLORADO FRONT RANGE...

CITY           SKY/WX    TMP DP  RH WIND       PRES   REMARKS
DENVER INTL AP FAIR      53  46  77 SW7       30.00S
AURORA         PTCLDY    54  46  73 CALM      30.01S
FRONT RANGE AP FAIR      56  48  74 SW5       30.01R
ERIE MUNI ARPT FAIR      52  49  89 SW3       30.03F
BOULDER MUN AP FAIR      54  46  76 SW7       29.98S
CENTENNIAL     FAIR      50  46  86 CALM      30.02S
BROOMFIELD     FAIR      52  46  82 CALM      30.01S
FORT COLLINS   FAIR      51  47  86 NW9       29.97F
LONGMONT       FAIR      53  48  84 SW3       29.99F
$$

COZ041-046-047-076>085-087-088-230900-
...PIKES PEAK/PALMER DIVIDE AND SOUTHERN FOOTHILLS...

CITY           SKY/WX    TMP DP  RH WIND       PRES   REMARKS
COLO. SPRINGS  FAIR      54  44  69 N7        30.04R
A. F. ACADEMY  FAIR      49  43  81 N8        30.04R
SCHRIEVER AFB  NOT AVBL
CHEYENNE MTN   FAIR      57  42  55 NW10      30.02R
ELLICOTT         N/A      1  32 100 VRB3      30.01R
FALCON         FAIR      51  42  71 N10G16    30.07R
FORT CARSON    FAIR      56  44  63 N10       30.00R
LIMON          FAIR      58  46  64 S7        30.00S
MONUMENT HILL  FAIR      46  41  81 NW3       30.09S
CANON CITY     FAIR      59  39  47 NW6       29.96R
WALSENBURG     FAIR      55  41  58 S8        30.01S
TRINIDAD       FAIR      59  47  64 SW17      30.00F
$$

COZ042>045-048>051-090-091-230900-
...NORTHEAST COLORADO...

CITY           SKY/WX    TMP DP  RH WIND       PRES   REMARKS
GREELEY ARPT   FAIR      54  50  86 NW5       29.94F
AKRON          FAIR      57  52  83 N12       29.95R
BURLINGTON     FAIR      64  53  67 S14       29.95S
WRAY           FAIR      63  54  72 S7        29.94R
YUMA           FAIR      61  43  51 S9        29.94R
STERLING       FAIR      59  52  77 N8        29.90S
HOLYOKE        FAIR      61  54  77 SE9       29.92S
FORT MORGAN    FAIR      58  47  67 N9        29.95R
$$

COZ086-089-092>099-230900-
...SOUTHEAST COLORADO...

CITY           SKY/WX    TMP DP  RH WIND       PRES   REMARKS
PUEBLO         FAIR      56  39  53 NW6       29.94R
LA JUNTA       FAIR      66  46  48 SE9       29.94R
LAMAR          FAIR      63  53  70 SE20G36   29.94R
SPRINGFIELD      N/A     58  57  97 S24G33    30.06R
$$




USA.gov is the U.S. government's official web portal to all federal, state and local government web resources and services.